Simultaneous Nadir Overpasses (SNOs) Predictions

Prediction of SNOs between AQUA and METOP-C Satellite Orbit:

Table of predicted SNOs for the next 14.0 days since TLE Epoch: 9/18/2020
Index Date (AQUA) Time (AQUA) Lat,Lon (AQUA) SZA (AQUA ) Date (METOP-C) Time (METOP-C) Lat,Lon (METOP-C) SZA (METOP-C ) Distance(km) Time Diff (sec)
1 09/18/2020 21:41:45 -73.80, 28.94 107.67 09/18/2020 21:41:38 -73.77, 28.91 107.69 2.77 7
2 09/18/2020 22:31:13 73.83,-163.50 72.38 09/18/2020 22:32:16 73.84,-163.59 72.39 3.13 63
3 09/21/2020 16:26:32 73.69, -72.03 73.30 09/21/2020 16:25:19 73.64, -72.31 73.26 10.00 73
4 09/21/2020 17:16:00 -73.80, 95.37 106.58 09/21/2020 17:15:58 -73.81, 95.41 106.57 1.57 2
5 09/21/2020 18:05:28 73.84, -97.09 73.48 09/21/2020 18:06:36 73.87, -97.11 73.50 3.06 68
6 09/24/2020 12:00:47 73.71, -5.64 74.41 09/24/2020 11:59:38 73.72, -5.72 74.43 2.84 69
7 09/24/2020 12:50:15 -73.81, 161.78 105.48 09/24/2020 12:50:19 -73.79, 161.78 105.50 1.94 4
8 09/24/2020 13:39:43 73.86, -30.69 74.59 09/24/2020 13:40:56 73.90, -30.64 74.62 4.21 73
9 09/27/2020 07:35:01 73.73, 60.75 75.52 09/27/2020 07:33:57 73.74, 60.75 75.54 1.37 64
10 09/27/2020 08:24:29 -73.83,-131.82 104.37 09/27/2020 08:24:38 -73.82,-131.74 104.37 2.73 9
11 09/27/2020 09:14:01 74.09, 35.22 75.92 09/27/2020 09:15:11 74.12, 36.32 75.93 33.50 70
12 09/30/2020 03:09:16 73.76, 127.12 76.64 09/30/2020 03:08:17 73.77, 127.22 76.65 3.21 59
13 09/30/2020 03:58:43 -73.80, -65.33 103.31 09/30/2020 03:58:59 -73.80, -65.37 103.30 1.55 16
